Regional Weather Roundup
Issued by NWS

Home | Current Version | Previous Version | Graphics & Text | Print | Product List | Glossary On
Versions: 1 2 3 4 5 6 7 8 9 10 11 12 13 14 15 16 17 18 19 20 21 22 23 24 25 26 27 28 29 30 31 32 33 34 35 36 37 38 39 40 41 42 43 44 45 46 47 48 49 50
000
ASUS43 KLOT 260409
RWRIL

ILLINOIS REGIONAL WEATHER ROUNDUP
NATIONAL WEATHER SERVICE CHICAGO/ROMEOVILLE IL
1100 PM CDT WED MAY 25 2016

NOTE: "FAIR" INDICATES FEW OR NO CLOUDS BELOW 12,000 FEET WITH NO
SIGNIFICANT WEATHER AND/OR OBSTRUCTIONS TO VISIBILITY.

* THESE STATIONS ARE NOT UNDER NWS QUALITY CONTROL. THEY ALSO MAY NOT
  REPORT WEATHER SUCH AS PRECIPITATION OR FOG.

ILZ001-002-007-009-015-016-024-260500-
NORTHWEST ILLINOIS

CITY           SKY/WX    TMP DP  RH WIND       PRES   REMARKS
MOLINE         PTCLDY    71  61  70 S3        29.89S
STERLING*      CLEAR     75  65  70 CALM      29.91S
SAVANNA*       MOCLDY    68  62  81 S5        29.89F
$$

ILZ003-004-008-010-011-017-018-260500-
NORTH CENTRAL ILLINOIS

CITY           SKY/WX    TMP DP  RH WIND       PRES   REMARKS
ROCKFORD       PTCLDY    68  64  87 S7        29.94S
FREEPORT*      CLEAR     64  61  89 S6        29.93S
ROCHELLE*      CLEAR     67  65  93 S8        29.92S
DE KALB*       CLEAR     65  64  96 SE7       29.94S
$$

ILZ005-006-012>014-019>023-260500-
NORTHEAST ILLINOIS

CITY           SKY/WX    TMP DP  RH WIND       PRES   REMARKS
CHICAGO-OHARE  CLOUDY    67  65  93 E8        29.95R
CHICAGO-MIDWAY CLOUDY    67  63  87 E9        29.95S
AURORA         PTCLDY    66  64  93 E6        29.94S
LANSING*       CLOUDY    66  62  87 E7        29.96S
JOLIET*        PTCLDY    67  66  95 SE3       29.94S
WAUKEGAN       CLOUDY    64  63  96 SE7       29.92F
DUPAGE AIRPORT PTCLDY    66  63  90 E6        29.94S
KANKAKEE*      PTCLDY   N/A N/A N/A S12       29.96S
WHEELING       MOCLDY    66  64  93 S7        29.95F
MORRIS*        PTCLDY    74  64  69 S6        29.92S
ROMEOVILLE*    PTCLDY    66  63  90 E7        29.95R
NORTHERLY ISL    N/A     61  59  93 E5          N/A
NORTHERLY ISL    N/A     61  59  93 E5          N/A
$$

LMZ740>746-260500-
SOUTHERN LAKE MICHIGAN

STATION/POSITION SKY/WX   TEMP    WIND        PRES    VSBY  WAVE
                          AIR SEA DIR/SP/G                  HT/PER
                          (F)     (DEG/KT/KT) (MB)    (MI)  (FT/S)
SOUTHERN BUOY              57 49  130/ 16/ 16 1013.4F         1/ 3
WILMETTE HARBOR            61 56  140/ 10/ 12   N/A           1/ 2
HARRISON CRIB              62      60/ 12/ 14   N/A
BURNHAM HARBOR             61     350/  1/  6   N/A
CALUMET HARBOR             62                   N/A
BURNS HARBOR               60     340/  9/ 24 1015.9R
MICHIGAN CITY              64     150/  3/  4   N/A
MICHIGAN CITY 6N           62 59   80/ 10/ 12   N/A           1/ 3
ST. JOSEPH                 62 59   20/ 12/ 16   N/A           2/ 4
$$

ILZ025>027-034>036-040-047-049-050-058-095>099-260500-
WEST-CENTRAL ILLINOIS

CITY           SKY/WX    TMP DP  RH WIND       PRES   REMARKS
QUINCY         CLOUDY    74  65  73 S9        29.93S
GALESBURG*     PTCLDY    72  64  74 S7        29.92F
MACOMB*        PTCLDY    74  64  71 S9        29.95S
JACKSONVILLE*  CLEAR     73  63  69 S6        29.95S
PITTSFIELD*    MOCLDY    74  65  75 S7        29.96S
$$

ILZ028>032-037-038-041>044-048-051>054-059>061-260500-
CENTRAL ILLINOIS

CITY           SKY/WX    TMP DP  RH WIND       PRES   REMARKS
PONTIAC        MOCLDY    76  66  71 S12       29.95S
BLOOMINGTON    MOCLDY    74  67  78 S12       29.98S
DECATUR        CLEAR     72  65  78 S8        29.97F
PEORIA         CLEAR     73  65  75 S8        29.93S
LACON*         CLEAR     72  64  74 S3        29.92S
LINCOLN*       CLEAR     73  68  82 S7        29.95S
SPRINGFIELD    CLEAR     73  66  78 S13       29.96R
TAYLORVILLE    CLEAR     71  66  84 S12       29.97S
$$

ILZ033-039-045-046-055>057-062-063-260500-
EAST-CENTRAL ILLINOIS

CITY           SKY/WX    TMP DP  RH WIND       PRES   REMARKS
CHAMPAIGN      CLEAR     70  64  81 S10       29.99S
RANTOUL*       PTCLDY    72  66  80 S12       29.98S
MATTOON        CLOUDY    70  65  84 S7        29.99S
PARIS*         MOCLDY    70  66  88 S6        30.02S
$$

ILZ079-100>102-260500-
SOUTHWEST ILLINOIS

CITY           SKY/WX    TMP DP  RH WIND       PRES   REMARKS
ALTON          CLEAR     70  65  84 S8        29.98S
BELLEVILLE     CLEAR     70  70 100 VRB3      29.98S
CAHOKIA*       CLEAR     73  66  78 S5        29.98S
SPARTA*        CLEAR     70  67  90 S12       30.01S
$$

ILZ064>066-069>071-074>076-080>082-084>086-088>090-092>094-260500-
SOUTH-CENTRAL ILLINOIS

CITY           SKY/WX    TMP DP  RH WIND       PRES   REMARKS
CARBONDALE     CLEAR     68  64  87 S9        30.03R
CAIRO*         CLOUDY    67  65  92 S7        30.05S
EFFINGHAM*     CLOUDY    70  69  96 SE6       30.01S
MARION         CLOUDY    68  66  94 S8        30.04S
MT. VERNON     CLOUDY    70  63  78 SW8       30.03R
CENTRALIA*     CLOUDY    69  68  94 S8        30.00S
SALEM*         CLOUDY    71  67  88 S8        30.00S
METROPOLIS*    CLOUDY    68  67  95 S3        30.06F
$$

ILZ067-068-072-073-078-083-087-091-260500-
SOUTHEAST ILLINOIS

CITY           SKY/WX    TMP DP  RH WIND       PRES   REMARKS
LAWRENCEVILLE  MOCLDY    70  65  84 S12       30.03S
FLORA*         CLOUDY    71  68  89 S7        30.01S
FAIRFIELD*     MOCLDY    69  67  92 S7        30.01F
HARRISBURG*    CLOUDY    69  67  94 SW6       30.04S
ROBINSON*      MOCLDY    68  65  89 S7        30.03S
CARMI*         MOCLDY    68  66  94 S7        30.03S
$$

ABBREVIATIONS USED IN REMARKS
   TC - TEMPERATURE IN CELSIUS
  WCI - WIND CHILL INDEX
   HX - HEAT INDEX
  VSB - VISIBILITY
$$





USA.gov is the U.S. government's official web portal to all federal, state and local government web resources and services.